#datetime,building,power
2022-08-09T00:00:00,mfh,29.81
2022-08-09T00:01:00,mfh,28.88
2022-08-09T00:02:00,mfh,28.83
2022-08-09T00:03:00,mfh,28.91
2022-08-09T00:04:00,mfh,29.51
2022-08-09T00:05:00,mfh,29.45
2022-08-09T00:06:00,mfh,29.50
2022-08-09T00:07:00,mfh,29.49
2022-08-09T00:08:00,mfh,28.87
2022-08-09T00:09:00,mfh,28.87
2022-08-09T00:10:00,mfh,29.05
2022-08-09T00:11:00,mfh,29.05
2022-08-09T00:12:00,mfh,29.64
2022-08-09T00:13:00,mfh,29.40
2022-08-09T00:14:00,mfh,29.43
2022-08-09T00:15:00,mfh,29.46
2022-08-09T00:16:00,mfh,28.75
2022-08-09T00:17:00,mfh,28.75
2022-08-09T00:18:00,mfh,28.84
2022-08-09T00:19:00,mfh,28.83
2022-08-09T00:20:00,mfh,29.41
2022-08-09T00:21:00,mfh,29.41
2022-08-09T00:22:00,mfh,29.43
2022-08-09T00:23:00,mfh,29.46
2022-08-09T00:24:00,mfh,28.85
2022-08-09T00:25:00,mfh,28.82
2022-08-09T00:26:00,mfh,28.92
2022-08-09T00:27:00,mfh,28.89
2022-08-09T00:28:00,mfh,29.26
2022-08-09T00:29:00,mfh,29.77
2022-08-09T00:30:00,mfh,29.88
2022-08-09T00:31:00,mfh,29.90
2022-08-09T00:32:00,mfh,29.36
2022-08-09T00:33:00,mfh,29.87
2022-08-09T00:34:00,mfh,29.48
2022-08-09T00:35:00,mfh,29.47
2022-08-09T00:36:00,mfh,30.01
2022-08-09T00:37:00,mfh,31.08
2022-08-09T00:38:00,mfh,30.23
2022-08-09T00:39:00,mfh,29.86
2022-08-09T00:40:00,mfh,29.22
2022-08-09T00:41:00,mfh,29.14
2022-08-09T00:42:00,mfh,29.23
2022-08-09T00:43:00,mfh,29.21
2022-08-09T00:44:00,mfh,29.24
2022-08-09T00:45:00,mfh,29.90
2022-08-09T00:46:00,mfh,29.85
2022-08-09T00:47:00,mfh,29.78
2022-08-09T00:48:00,mfh,29.02
2022-08-09T00:49:00,mfh,29.03
2022-08-09T00:50:00,mfh,29.08
2022-08-09T00:51:00,mfh,29.07
2022-08-09T00:52:00,mfh,29.52
2022-08-09T00:53:00,mfh,29.58
2022-08-09T00:54:00,mfh,29.60
2022-08-09T00:55:00,mfh,29.47
2022-08-09T00:56:00,mfh,28.80
2022-08-09T00:57:00,mfh,28.92
2022-08-09T00:58:00,mfh,28.88
2022-08-09T00:59:00,mfh,28.88
2022-08-09T01:00:00,mfh,29.07
2022-08-09T01:01:00,mfh,29.37
2022-08-09T01:02:00,mfh,29.32
2022-08-09T01:03:00,mfh,29.34
2022-08-09T01:04:00,mfh,29.25
2022-08-09T01:05:00,mfh,28.50
2022-08-09T01:06:00,mfh,28.58
2022-08-09T01:07:00,mfh,28.67
2022-08-09T01:08:00,mfh,28.59
2022-08-09T01:09:00,mfh,29.21
2022-08-09T01:10:00,mfh,29.43
2022-08-09T01:11:00,mfh,29.47
2022-08-09T01:12:00,mfh,29.48
2022-08-09T01:13:00,mfh,28.88
2022-08-09T01:14:00,mfh,28.88
2022-08-09T01:15:00,mfh,28.98
2022-08-09T01:16:00,mfh,28.90
2022-08-09T01:17:00,mfh,29.46
2022-08-09T01:18:00,mfh,29.42
2022-08-09T01:19:00,mfh,29.40
2022-08-09T01:20:00,mfh,29.50
2022-08-09T01:21:00,mfh,28.85
2022-08-09T01:22:00,mfh,28.84
2022-08-09T01:23:00,mfh,28.78
2022-08-09T01:24:00,mfh,28.75
2022-08-09T01:25:00,mfh,30.06
2022-08-09T01:26:00,mfh,28.64
2022-08-09T01:27:00,mfh,28.64
2022-08-09T01:28:00,mfh,28.63
2022-08-09T01:29:00,mfh,29.26
2022-08-09T01:30:00,mfh,29.25
2022-08-09T01:31:00,mfh,29.19
2022-08-09T01:32:00,mfh,29.32
2022-08-09T01:33:00,mfh,29.31
2022-08-09T01:34:00,mfh,28.75
2022-08-09T01:35:00,mfh,28.75
2022-08-09T01:36:00,mfh,28.58
2022-08-09T01:37:00,mfh,28.63
2022-08-09T01:38:00,mfh,28.64
2022-08-09T01:39:00,mfh,29.21
2022-08-09T01:40:00,mfh,29.23
2022-08-09T01:41:00,mfh,29.22
2022-08-09T01:42:00,mfh,29.20
2022-08-09T01:43:00,mfh,28.50
2022-08-09T01:44:00,mfh,28.51
2022-08-09T01:45:00,mfh,28.50
2022-08-09T01:46:00,mfh,28.50
2022-08-09T01:47:00,mfh,29.16
2022-08-09T01:48:00,mfh,29.14
2022-08-09T01:49:00,mfh,29.10
2022-08-09T01:50:00,mfh,30.83
2022-08-09T01:51:00,mfh,29.52
2022-08-09T01:52:00,mfh,29.64
2022-08-09T01:53:00,mfh,29.60
2022-08-09T01:54:00,mfh,28.86
2022-08-09T01:55:00,mfh,29.39
2022-08-09T01:56:00,mfh,29.46
2022-08-09T01:57:00,mfh,29.52
2022-08-09T01:58:00,mfh,29.52
2022-08-09T01:59:00,mfh,28.81
2022-08-09T02:00:00,mfh,29.19
2022-08-09T02:01:00,mfh,28.96
2022-08-09T02:02:00,mfh,28.96
2022-08-09T02:03:00,mfh,29.66
2022-08-09T02:04:00,mfh,29.66
2022-08-09T02:05:00,mfh,29.64
2022-08-09T02:06:00,mfh,29.60
2022-08-09T02:07:00,mfh,28.95
2022-08-09T02:08:00,mfh,29.03
2022-08-09T02:09:00,mfh,29.15
2022-08-09T02:10:00,mfh,29.06
2022-08-09T02:11:00,mfh,29.71
2022-08-09T02:12:00,mfh,29.65
2022-08-09T02:13:00,mfh,29.68
2022-08-09T02:14:00,mfh,29.57
2022-08-09T02:15:00,mfh,28.90
2022-08-09T02:16:00,mfh,28.80
2022-08-09T02:17:00,mfh,28.78
2022-08-09T02:18:00,mfh,28.79
2022-08-09T02:19:00,mfh,28.70
2022-08-09T02:20:00,mfh,29.35
2022-08-09T02:21:00,mfh,29.26
2022-08-09T02:22:00,mfh,29.31
2022-08-09T02:23:00,mfh,28.63
2022-08-09T02:24:00,mfh,28.70
2022-08-09T02:25:00,mfh,28.69
2022-08-09T02:26:00,mfh,29.46
2022-08-09T02:27:00,mfh,28.57
2022-08-09T02:28:00,mfh,29.19
2022-08-09T02:29:00,mfh,29.24
2022-08-09T02:30:00,mfh,29.57
2022-08-09T02:31:00,mfh,28.83
2022-08-09T02:32:00,mfh,28.90
2022-08-09T02:33:00,mfh,28.90
2022-08-09T02:34:00,mfh,28.80
2022-08-09T02:35:00,mfh,28.81
2022-08-09T02:36:00,mfh,29.44
2022-08-09T02:37:00,mfh,29.57
2022-08-09T02:38:00,mfh,29.46
2022-08-09T02:39:00,mfh,28.89
2022-08-09T02:40:00,mfh,29.38
2022-08-09T02:41:00,mfh,28.80
2022-08-09T02:42:00,mfh,28.86
2022-08-09T02:43:00,mfh,28.84
2022-08-09T02:44:00,mfh,29.49
2022-08-09T02:45:00,mfh,29.60
2022-08-09T02:46:00,mfh,29.64
2022-08-09T02:47:00,mfh,29.59
2022-08-09T02:48:00,mfh,29.06
2022-08-09T02:49:00,mfh,29.01
2022-08-09T02:50:00,mfh,29.11
2022-08-09T02:51:00,mfh,29.25
2022-08-09T02:52:00,mfh,29.88
2022-08-09T02:53:00,mfh,29.90
2022-08-09T02:54:00,mfh,29.89
2022-08-09T02:55:00,mfh,29.88
2022-08-09T02:56:00,mfh,29.10
2022-08-09T02:57:00,mfh,29.10
2022-08-09T02:58:00,mfh,29.11
2022-08-09T02:59:00,mfh,29.20
2022-08-09T03:00:00,mfh,29.74
2022-08-09T03:01:00,mfh,29.70
2022-08-09T03:02:00,mfh,29.61
2022-08-09T03:03:00,mfh,29.74
2022-08-09T03:04:00,mfh,29.03
2022-08-09T03:05:00,mfh,29.02
2022-08-09T03:06:00,mfh,29.05
2022-08-09T03:07:00,mfh,28.90
2022-08-09T03:08:00,mfh,29.44
2022-08-09T03:09:00,mfh,29.46
2022-08-09T03:10:00,mfh,29.85
2022-08-09T03:11:00,mfh,29.73
2022-08-09T03:12:00,mfh,29.05
2022-08-09T03:13:00,mfh,28.90
2022-08-09T03:14:00,mfh,28.89
2022-08-09T03:15:00,mfh,28.87
2022-08-09T03:16:00,mfh,30.48
2022-08-09T03:17:00,mfh,29.50
2022-08-09T03:18:00,mfh,29.50
2022-08-09T03:19:00,mfh,29.60
2022-08-09T03:20:00,mfh,28.89
2022-08-09T03:21:00,mfh,28.94
2022-08-09T03:22:00,mfh,28.80
2022-08-09T03:23:00,mfh,28.79
2022-08-09T03:24:00,mfh,28.79
2022-08-09T03:25:00,mfh,29.40
2022-08-09T03:26:00,mfh,29.49
2022-08-09T03:27:00,mfh,29.71
2022-08-09T03:28:00,mfh,29.71
2022-08-09T03:29:00,mfh,28.90
2022-08-09T03:30:00,mfh,28.91
2022-08-09T03:31:00,mfh,28.89
2022-08-09T03:32:00,mfh,28.89
2022-08-09T03:33:00,mfh,29.56
2022-08-09T03:34:00,mfh,29.57
2022-08-09T03:35:00,mfh,29.63
2022-08-09T03:36:00,mfh,30.00
2022-08-09T03:37:00,mfh,29.11
2022-08-09T03:38:00,mfh,28.45
2022-08-09T03:39:00,mfh,29.01
2022-08-09T03:40:00,mfh,28.55
2022-08-09T03:41:00,mfh,29.16
2022-08-09T03:42:00,mfh,29.21
2022-08-09T03:43:00,mfh,29.25
2022-08-09T03:44:00,mfh,29.21
2022-08-09T03:45:00,mfh,28.49
2022-08-09T03:46:00,mfh,28.54
2022-08-09T03:47:00,mfh,28.56
2022-08-09T03:48:00,mfh,28.60
2022-08-09T03:49:00,mfh,29.24
2022-08-09T03:50:00,mfh,29.30
2022-08-09T03:51:00,mfh,29.29
2022-08-09T03:52:00,mfh,29.48
2022-08-09T03:53:00,mfh,28.89
2022-08-09T03:54:00,mfh,28.96
2022-08-09T03:55:00,mfh,28.97
2022-08-09T03:56:00,mfh,28.93
2022-08-09T03:57:00,mfh,29.83
2022-08-09T03:58:00,mfh,29.95
2022-08-09T03:59:00,mfh,29.74
2022-08-09T04:00:00,mfh,29.75
2022-08-09T04:01:00,mfh,29.08
2022-08-09T04:02:00,mfh,29.08
2022-08-09T04:03:00,mfh,29.07
2022-08-09T04:04:00,mfh,29.05
2022-08-09T04:05:00,mfh,29.56
2022-08-09T04:06:00,mfh,29.73
2022-08-09T04:07:00,mfh,29.71
2022-08-09T04:08:00,mfh,29.75
2022-08-09T04:09:00,mfh,28.97
2022-08-09T04:10:00,mfh,28.85
2022-08-09T04:11:00,mfh,28.79
2022-08-09T04:12:00,mfh,28.79
2022-08-09T04:13:00,mfh,29.39
2022-08-09T04:14:00,mfh,29.54
2022-08-09T04:15:00,mfh,29.45
2022-08-09T04:16:00,mfh,29.17
2022-08-09T04:17:00,mfh,28.43
2022-08-09T04:18:00,mfh,29.14
2022-08-09T04:19:00,mfh,29.17
2022-08-09T04:20:00,mfh,29.18
2022-08-09T04:21:00,mfh,29.91
2022-08-09T04:22:00,mfh,30.57
2022-08-09T04:23:00,mfh,29.39
2022-08-09T04:24:00,mfh,29.32
2022-08-09T04:25:00,mfh,28.65
2022-08-09T04:26:00,mfh,28.74
2022-08-09T04:27:00,mfh,28.73
2022-08-09T04:28:00,mfh,28.74
2022-08-09T04:29:00,mfh,28.73
2022-08-09T04:30:00,mfh,29.88
2022-08-09T04:31:00,mfh,29.97
2022-08-09T04:32:00,mfh,39.29
2022-08-09T04:33:00,mfh,39.66
2022-08-09T04:34:00,mfh,39.20
2022-08-09T04:35:00,mfh,39.15
2022-08-09T04:36:00,mfh,39.05
2022-08-09T04:37:00,mfh,38.94
2022-08-09T04:38:00,mfh,39.72
2022-08-09T04:39:00,mfh,39.66
2022-08-09T04:40:00,mfh,40.41
2022-08-09T04:41:00,mfh,38.94
2022-08-09T04:42:00,mfh,38.93
2022-08-09T04:43:00,mfh,38.86
2022-08-09T04:44:00,mfh,38.92
2022-08-09T04:45:00,mfh,38.98
2022-08-09T04:46:00,mfh,39.73
2022-08-09T04:47:00,mfh,39.74
2022-08-09T04:48:00,mfh,39.84
2022-08-09T04:49:00,mfh,38.98
2022-08-09T04:50:00,mfh,39.03
2022-08-09T04:51:00,mfh,40.14
2022-08-09T04:52:00,mfh,39.01
2022-08-09T04:53:00,mfh,38.98
2022-08-09T04:54:00,mfh,39.68
2022-08-09T04:55:00,mfh,39.80
2022-08-09T04:56:00,mfh,39.52
2022-08-09T04:57:00,mfh,38.75
2022-08-09T04:58:00,mfh,39.18
2022-08-09T04:59:00,mfh,38.70
2022-08-09T05:00:00,mfh,38.69
2022-08-09T05:01:00,mfh,51.75
2022-08-09T05:02:00,mfh,54.18
2022-08-09T05:03:00,mfh,54.14
2022-08-09T05:04:00,mfh,54.28
2022-08-09T05:05:00,mfh,54.30
2022-08-09T05:06:00,mfh,53.53
2022-08-09T05:07:00,mfh,53.48
2022-08-09T05:08:00,mfh,53.44
2022-08-09T05:09:00,mfh,53.43
2022-08-09T05:10:00,mfh,54.07
2022-08-09T05:11:00,mfh,54.79
2022-08-09T05:12:00,mfh,54.41
2022-08-09T05:13:00,mfh,53.67
2022-08-09T05:14:00,mfh,53.87
2022-08-09T05:15:00,mfh,54.13
2022-08-09T05:16:00,mfh,53.64
2022-08-09T05:17:00,mfh,54.70
2022-08-09T05:18:00,mfh,54.57
2022-08-09T05:19:00,mfh,54.10
2022-08-09T05:20:00,mfh,54.46
2022-08-09T05:21:00,mfh,54.57
2022-08-09T05:22:00,mfh,53.83
2022-08-09T05:23:00,mfh,53.85
2022-08-09T05:24:00,mfh,53.91
2022-08-09T05:25:00,mfh,53.91
2022-08-09T05:26:00,mfh,54.48
2022-08-09T05:27:00,mfh,55.50
2022-08-09T05:28:00,mfh,54.59
2022-08-09T05:29:00,mfh,54.48
2022-08-09T05:30:00,mfh,53.60
2022-08-09T05:31:00,mfh,53.75
2022-08-09T05:32:00,mfh,53.60
2022-08-09T05:33:00,mfh,53.84
2022-08-09T05:34:00,mfh,54.35
2022-08-09T05:35:00,mfh,54.37
2022-08-09T05:36:00,mfh,54.31
2022-08-09T05:37:00,mfh,54.36
2022-08-09T05:38:00,mfh,53.43
2022-08-09T05:39:00,mfh,53.52
2022-08-09T05:40:00,mfh,53.45
2022-08-09T05:41:00,mfh,54.06
2022-08-09T05:42:00,mfh,54.78
2022-08-09T05:43:00,mfh,54.24
2022-08-09T05:44:00,mfh,54.15
2022-08-09T05:45:00,mfh,54.17
2022-08-09T05:46:00,mfh,53.54
2022-08-09T05:47:00,mfh,53.54
2022-08-09T05:48:00,mfh,53.56
2022-08-09T05:49:00,mfh,53.72
2022-08-09T05:50:00,mfh,54.31
2022-08-09T05:51:00,mfh,54.37
2022-08-09T05:52:00,mfh,54.88
2022-08-09T05:53:00,mfh,54.48
2022-08-09T05:54:00,mfh,53.82
2022-08-09T05:55:00,mfh,53.85
2022-08-09T05:56:00,mfh,53.75
2022-08-09T05:57:00,mfh,53.84
2022-08-09T05:58:00,mfh,54.60
2022-08-09T05:59:00,mfh,54.98
2022-08-09T06:00:00,mfh,54.97
2022-08-09T06:01:00,mfh,58.57
2022-08-09T06:02:00,mfh,58.83
2022-08-09T06:03:00,mfh,57.99
2022-08-09T06:04:00,mfh,57.89
2022-08-09T06:05:00,mfh,58.16
2022-08-09T06:06:00,mfh,59.10
2022-08-09T06:07:00,mfh,59.05
2022-08-09T06:08:00,mfh,59.68
2022-08-09T06:09:00,mfh,59.89
2022-08-09T06:10:00,mfh,59.82
2022-08-09T06:11:00,mfh,59.02
2022-08-09T06:12:00,mfh,59.41
2022-08-09T06:13:00,mfh,59.57
2022-08-09T06:14:00,mfh,60.91
2022-08-09T06:15:00,mfh,60.24
2022-08-09T06:16:00,mfh,61.21
2022-08-09T06:17:00,mfh,60.33
2022-08-09T06:18:00,mfh,61.59
2022-08-09T06:19:00,mfh,61.57
2022-08-09T06:20:00,mfh,60.03
2022-08-09T06:21:00,mfh,61.19
2022-08-09T06:22:00,mfh,60.13
2022-08-09T06:23:00,mfh,60.03
2022-08-09T06:24:00,mfh,60.01
2022-08-09T06:25:00,mfh,59.90
2022-08-09T06:26:00,mfh,59.97
2022-08-09T06:27:00,mfh,59.24
2022-08-09T06:28:00,mfh,59.97
2022-08-09T06:29:00,mfh,58.96
2022-08-09T06:30:00,mfh,58.20
2022-08-09T06:31:00,mfh,58.93
2022-08-09T06:32:00,mfh,60.36
2022-08-09T06:33:00,mfh,61.45
2022-08-09T06:34:00,mfh,60.26
2022-08-09T06:35:00,mfh,60.20
2022-08-09T06:36:00,mfh,60.37
2022-08-09T06:37:00,mfh,60.44
2022-08-09T06:38:00,mfh,59.63
2022-08-09T06:39:00,mfh,59.74
2022-08-09T06:40:00,mfh,60.83
2022-08-09T06:41:00,mfh,61.37
2022-08-09T06:42:00,mfh,61.38
2022-08-09T06:43:00,mfh,62.28
2022-08-09T06:44:00,mfh,62.31
2022-08-09T06:45:00,mfh,62.31
2022-08-09T06:46:00,mfh,62.28
2022-08-09T06:47:00,mfh,60.73
2022-08-09T06:48:00,mfh,60.61
2022-08-09T06:49:00,mfh,60.70
2022-08-09T06:50:00,mfh,61.01
2022-08-09T06:51:00,mfh,61.14
2022-08-09T06:52:00,mfh,61.43
2022-08-09T06:53:00,mfh,61.29
2022-08-09T06:54:00,mfh,62.00
2022-08-09T06:55:00,mfh,61.74
2022-08-09T06:56:00,mfh,61.67
2022-08-09T06:57:00,mfh,61.12
2022-08-09T06:58:00,mfh,61.04
2022-08-09T06:59:00,mfh,61.72
2022-08-09T07:00:00,mfh,61.32
2022-08-09T07:01:00,mfh,61.33
2022-08-09T07:02:00,mfh,61.23
2022-08-09T07:03:00,mfh,61.44
2022-08-09T07:04:00,mfh,61.71
2022-08-09T07:05:00,mfh,61.39
2022-08-09T07:06:00,mfh,60.51
2022-08-09T07:07:00,mfh,61.16
2022-08-09T07:08:00,mfh,61.21
2022-08-09T07:09:00,mfh,61.19
2022-08-09T07:10:00,mfh,61.81
2022-08-09T07:11:00,mfh,61.89
2022-08-09T07:12:00,mfh,61.24
2022-08-09T07:13:00,mfh,61.10
2022-08-09T07:14:00,mfh,60.42
2022-08-09T07:15:00,mfh,60.37
2022-08-09T07:16:00,mfh,60.91
2022-08-09T07:17:00,mfh,60.70
2022-08-09T07:18:00,mfh,61.40
2022-08-09T07:19:00,mfh,54.56
2022-08-09T07:20:00,mfh,54.58
2022-08-09T07:21:00,mfh,54.66
2022-08-09T07:22:00,mfh,53.40
2022-08-09T07:23:00,mfh,53.37
2022-08-09T07:24:00,mfh,53.14
2022-08-09T07:25:00,mfh,53.63
2022-08-09T07:26:00,mfh,53.59
2022-08-09T07:27:00,mfh,54.48
2022-08-09T07:28:00,mfh,53.66
2022-08-09T07:29:00,mfh,53.59
2022-08-09T07:30:00,mfh,52.98
2022-08-09T07:31:00,mfh,53.02
2022-08-09T07:32:00,mfh,52.98
2022-08-09T07:33:00,mfh,52.94
2022-08-09T07:34:00,mfh,53.60
2022-08-09T07:35:00,mfh,53.69
2022-08-09T07:36:00,mfh,54.48
2022-08-09T07:37:00,mfh,55.66
2022-08-09T07:38:00,mfh,56.25
2022-08-09T07:39:00,mfh,55.90
2022-08-09T07:40:00,mfh,56.09
2022-08-09T07:41:00,mfh,56.52
2022-08-09T07:42:00,mfh,57.45
2022-08-09T07:43:00,mfh,57.08
2022-08-09T07:44:00,mfh,57.45
2022-08-09T07:45:00,mfh,57.99
2022-08-09T07:46:00,mfh,57.52
2022-08-09T07:47:00,mfh,57.63
2022-08-09T07:48:00,mfh,56.84
2022-08-09T07:49:00,mfh,56.27
2022-08-09T07:50:00,mfh,56.41
2022-08-09T07:51:00,mfh,57.00
2022-08-09T07:52:00,mfh,56.89
2022-08-09T07:53:00,mfh,56.79
2022-08-09T07:54:00,mfh,56.79
2022-08-09T07:55:00,mfh,56.75
2022-08-09T07:56:00,mfh,56.70
2022-08-09T07:57:00,mfh,56.14
2022-08-09T07:58:00,mfh,56.18
2022-08-09T07:59:00,mfh,56.27
2022-08-09T08:00:00,mfh,57.22
2022-08-09T08:01:00,mfh,57.34
2022-08-09T08:02:00,mfh,56.55
2022-08-09T08:03:00,mfh,56.64
2022-08-09T08:04:00,mfh,56.80
2022-08-09T08:05:00,mfh,57.34
2022-08-09T08:06:00,mfh,57.59
2022-08-09T08:07:00,mfh,57.60
2022-08-09T08:08:00,mfh,57.63
2022-08-09T08:09:00,mfh,57.63
2022-08-09T08:10:00,mfh,57.34
2022-08-09T08:11:00,mfh,56.89
2022-08-09T08:12:00,mfh,56.90
2022-08-09T08:13:00,mfh,57.48
2022-08-09T08:14:00,mfh,56.99
2022-08-09T08:15:00,mfh,56.87
2022-08-09T08:16:00,mfh,56.94
2022-08-09T08:17:00,mfh,57.27
2022-08-09T08:18:00,mfh,57.18
2022-08-09T08:19:00,mfh,56.57
2022-08-09T08:20:00,mfh,56.09
2022-08-09T08:21:00,mfh,56.23
2022-08-09T08:22:00,mfh,57.37
2022-08-09T08:23:00,mfh,57.52
2022-08-09T08:24:00,mfh,56.11
2022-08-09T08:25:00,mfh,56.14
2022-08-09T08:26:00,mfh,56.11
2022-08-09T08:27:00,mfh,56.78
2022-08-09T08:28:00,mfh,57.01
2022-08-09T08:29:00,mfh,56.77
2022-08-09T08:30:00,mfh,56.83
2022-08-09T08:31:00,mfh,56.91
2022-08-09T08:32:00,mfh,56.48
2022-08-09T08:33:00,mfh,56.48
2022-08-09T08:34:00,mfh,55.91
2022-08-09T08:35:00,mfh,55.63
2022-08-09T08:36:00,mfh,55.01
2022-08-09T08:37:00,mfh,55.07
2022-08-09T08:38:00,mfh,55.56
2022-08-09T08:39:00,mfh,55.42
2022-08-09T08:40:00,mfh,55.76
2022-08-09T08:41:00,mfh,54.75
2022-08-09T08:42:00,mfh,54.57
2022-08-09T08:43:00,mfh,55.39
2022-08-09T08:44:00,mfh,55.25
2022-08-09T08:45:00,mfh,55.24
2022-08-09T08:46:00,mfh,55.11
2022-08-09T08:47:00,mfh,55.43
2022-08-09T08:48:00,mfh,55.69
2022-08-09T08:49:00,mfh,54.84
2022-08-09T08:50:00,mfh,54.71
2022-08-09T08:51:00,mfh,54.34
2022-08-09T08:52:00,mfh,54.27
2022-08-09T08:53:00,mfh,55.42
2022-08-09T08:54:00,mfh,55.55
2022-08-09T08:55:00,mfh,55.74
2022-08-09T08:56:00,mfh,55.25
2022-08-09T08:57:00,mfh,55.94
2022-08-09T08:58:00,mfh,55.30
2022-08-09T08:59:00,mfh,55.56
2022-08-09T09:00:00,mfh,56.42
2022-08-09T09:01:00,mfh,56.97
2022-08-09T09:02:00,mfh,57.10
2022-08-09T09:03:00,mfh,56.22
2022-08-09T09:04:00,mfh,56.22
2022-08-09T09:05:00,mfh,56.96
2022-08-09T09:06:00,mfh,56.83
2022-08-09T09:07:00,mfh,56.16
2022-08-09T09:08:00,mfh,56.50
2022-08-09T09:09:00,mfh,56.54
2022-08-09T09:10:00,mfh,57.09
2022-08-09T09:11:00,mfh,57.07
2022-08-09T09:12:00,mfh,57.37
2022-08-09T09:13:00,mfh,57.30
2022-08-09T09:14:00,mfh,56.84
2022-08-09T09:15:00,mfh,56.29
2022-08-09T09:16:00,mfh,56.88
2022-08-09T09:17:00,mfh,56.32
2022-08-09T09:18:00,mfh,56.36
2022-08-09T09:19:00,mfh,56.86
2022-08-09T09:20:00,mfh,57.49
2022-08-09T09:21:00,mfh,56.66
2022-08-09T09:22:00,mfh,56.15
2022-08-09T09:23:00,mfh,56.15
2022-08-09T09:24:00,mfh,56.05
2022-08-09T09:25:00,mfh,54.60
2022-08-09T09:26:00,mfh,55.12
2022-08-09T09:27:00,mfh,56.38
2022-08-09T09:28:00,mfh,55.78
2022-08-09T09:29:00,mfh,56.09
2022-08-09T09:30:00,mfh,55.98
2022-08-09T09:31:00,mfh,58.06
2022-08-09T09:32:00,mfh,56.41
2022-08-09T09:33:00,mfh,55.53
2022-08-09T09:34:00,mfh,56.93
2022-08-09T09:35:00,mfh,55.51
2022-08-09T09:36:00,mfh,57.00
2022-08-09T09:37:00,mfh,56.83
2022-08-09T09:38:00,mfh,57.02
2022-08-09T09:39:00,mfh,57.34
2022-08-09T09:40:00,mfh,56.78
2022-08-09T09:41:00,mfh,56.46
2022-08-09T09:42:00,mfh,55.91
2022-08-09T09:43:00,mfh,55.93
2022-08-09T09:44:00,mfh,55.93
2022-08-09T09:45:00,mfh,56.48
2022-08-09T09:46:00,mfh,56.45
2022-08-09T09:47:00,mfh,56.17
2022-08-09T09:48:00,mfh,56.21
2022-08-09T09:49:00,mfh,56.05
2022-08-09T09:50:00,mfh,55.57
2022-08-09T09:51:00,mfh,55.98
2022-08-09T09:52:00,mfh,55.39
2022-08-09T09:53:00,mfh,55.91
2022-08-09T09:54:00,mfh,56.56
2022-08-09T09:55:00,mfh,56.03
2022-08-09T09:56:00,mfh,56.06
2022-08-09T09:57:00,mfh,57.96
2022-08-09T09:58:00,mfh,55.33
2022-08-09T09:59:00,mfh,55.75
2022-08-09T10:00:00,mfh,55.47
2022-08-09T10:01:00,mfh,55.83
2022-08-09T10:02:00,mfh,55.75
2022-08-09T10:03:00,mfh,55.75
2022-08-09T10:04:00,mfh,55.76
2022-08-09T10:05:00,mfh,55.89
2022-08-09T10:06:00,mfh,55.80
2022-08-09T10:07:00,mfh,55.42
2022-08-09T10:08:00,mfh,56.13
2022-08-09T10:09:00,mfh,55.30
2022-08-09T10:10:00,mfh,55.30
2022-08-09T10:11:00,mfh,56.66
2022-08-09T10:12:00,mfh,55.77
2022-08-09T10:13:00,mfh,56.02
2022-08-09T10:14:00,mfh,56.12
2022-08-09T10:15:00,mfh,55.66
2022-08-09T10:16:00,mfh,55.01
2022-08-09T10:17:00,mfh,55.26
2022-08-09T10:18:00,mfh,55.15
2022-08-09T10:19:00,mfh,55.75
2022-08-09T10:20:00,mfh,55.91
2022-08-09T10:21:00,mfh,55.65
2022-08-09T10:22:00,mfh,55.85
2022-08-09T10:23:00,mfh,55.76
2022-08-09T10:24:00,mfh,56.75
2022-08-09T10:25:00,mfh,55.24
2022-08-09T10:26:00,mfh,55.97
2022-08-09T10:27:00,mfh,55.48
2022-08-09T10:28:00,mfh,56.64
2022-08-09T10:29:00,mfh,58.48
2022-08-09T10:30:00,mfh,58.58
2022-08-09T10:31:00,mfh,58.27
2022-08-09T10:32:00,mfh,57.72
2022-08-09T10:33:00,mfh,57.97
2022-08-09T10:34:00,mfh,57.24
2022-08-09T10:35:00,mfh,57.72
2022-08-09T10:36:00,mfh,57.51
2022-08-09T10:37:00,mfh,58.38
2022-08-09T10:38:00,mfh,57.72
2022-08-09T10:39:00,mfh,57.85
2022-08-09T10:40:00,mfh,57.87
2022-08-09T10:41:00,mfh,58.12
2022-08-09T10:42:00,mfh,57.79
2022-08-09T10:43:00,mfh,56.72
2022-08-09T10:44:00,mfh,56.72
2022-08-09T10:45:00,mfh,57.13
2022-08-09T10:46:00,mfh,57.61
2022-08-09T10:47:00,mfh,57.75
2022-08-09T10:48:00,mfh,57.17
2022-08-09T10:49:00,mfh,57.27
2022-08-09T10:50:00,mfh,57.18
2022-08-09T10:51:00,mfh,56.44
2022-08-09T10:52:00,mfh,56.38
2022-08-09T10:53:00,mfh,56.44
2022-08-09T10:54:00,mfh,56.27
2022-08-09T10:55:00,mfh,56.32
2022-08-09T10:56:00,mfh,56.61
2022-08-09T10:57:00,mfh,57.03
2022-08-09T10:58:00,mfh,59.28
2022-08-09T10:59:00,mfh,59.06
2022-08-09T11:00:00,mfh,58.36
2022-08-09T11:01:00,mfh,58.63
2022-08-09T11:02:00,mfh,58.24
2022-08-09T11:03:00,mfh,57.08
2022-08-09T11:04:00,mfh,59.87
2022-08-09T11:05:00,mfh,58.17
2022-08-09T11:06:00,mfh,58.11
2022-08-09T11:07:00,mfh,56.50
2022-08-09T11:08:00,mfh,56.71
2022-08-09T11:09:00,mfh,55.79
2022-08-09T11:10:00,mfh,55.84
2022-08-09T11:11:00,mfh,56.15
2022-08-09T11:12:00,mfh,56.89
2022-08-09T11:13:00,mfh,56.55
2022-08-09T11:14:00,mfh,60.20
2022-08-09T11:15:00,mfh,64.35
2022-08-09T11:16:00,mfh,65.23
2022-08-09T11:17:00,mfh,64.97
2022-08-09T11:18:00,mfh,63.93
2022-08-09T11:19:00,mfh,63.69
2022-08-09T11:20:00,mfh,62.83
2022-08-09T11:21:00,mfh,64.22
2022-08-09T11:22:00,mfh,63.13
2022-08-09T11:23:00,mfh,63.02
2022-08-09T11:24:00,mfh,62.82
2022-08-09T11:25:00,mfh,63.24
2022-08-09T11:26:00,mfh,63.23
2022-08-09T11:27:00,mfh,63.05
2022-08-09T11:28:00,mfh,55.79
2022-08-09T11:29:00,mfh,55.87
2022-08-09T11:30:00,mfh,55.90
2022-08-09T11:31:00,mfh,55.56
2022-08-09T11:32:00,mfh,55.56
2022-08-09T11:33:00,mfh,55.80
2022-08-09T11:34:00,mfh,56.47
2022-08-09T11:35:00,mfh,56.58
2022-08-09T11:36:00,mfh,56.63
2022-08-09T11:37:00,mfh,56.18
2022-08-09T11:38:00,mfh,56.35
2022-08-09T11:39:00,mfh,55.78
2022-08-09T11:40:00,mfh,55.55
2022-08-09T11:41:00,mfh,55.23
2022-08-09T11:42:00,mfh,55.22
2022-08-09T11:43:00,mfh,55.99
2022-08-09T11:44:00,mfh,55.83
2022-08-09T11:45:00,mfh,55.73
2022-08-09T11:46:00,mfh,56.34
2022-08-09T11:47:00,mfh,56.39
2022-08-09T11:48:00,mfh,55.63
2022-08-09T11:49:00,mfh,63.70
2022-08-09T11:50:00,mfh,63.74
2022-08-09T11:51:00,mfh,64.25
2022-08-09T11:52:00,mfh,64.29
2022-08-09T11:53:00,mfh,64.15
2022-08-09T11:54:00,mfh,64.24
2022-08-09T11:55:00,mfh,65.34
2022-08-09T11:56:00,mfh,63.50
2022-08-09T11:57:00,mfh,63.66
2022-08-09T11:58:00,mfh,64.06
2022-08-09T11:59:00,mfh,64.09
2022-08-09T12:00:00,mfh,63.72
2022-08-09T12:01:00,mfh,64.15
2022-08-09T12:02:00,mfh,64.47
2022-08-09T12:03:00,mfh,64.75
2022-08-09T12:04:00,mfh,63.80
2022-08-09T12:05:00,mfh,64.15
2022-08-09T12:06:00,mfh,63.77
2022-08-09T12:07:00,mfh,63.84
2022-08-09T12:08:00,mfh,63.98
2022-08-09T12:09:00,mfh,64.76
2022-08-09T12:10:00,mfh,64.82
2022-08-09T12:11:00,mfh,64.65
2022-08-09T12:12:00,mfh,65.61
2022-08-09T12:13:00,mfh,64.59
2022-08-09T12:14:00,mfh,64.56
2022-08-09T12:15:00,mfh,62.85
2022-08-09T12:16:00,mfh,63.55
2022-08-09T12:17:00,mfh,66.42
2022-08-09T12:18:00,mfh,65.01
2022-08-09T12:19:00,mfh,66.33
2022-08-09T12:20:00,mfh,66.41
2022-08-09T12:21:00,mfh,66.65
2022-08-09T12:22:00,mfh,67.55
2022-08-09T12:23:00,mfh,66.55
2022-08-09T12:24:00,mfh,66.32
2022-08-09T12:25:00,mfh,64.70
2022-08-09T12:26:00,mfh,64.41
2022-08-09T12:27:00,mfh,64.32
2022-08-09T12:28:00,mfh,64.22
2022-08-09T12:29:00,mfh,64.17
2022-08-09T12:30:00,mfh,63.79
2022-08-09T12:31:00,mfh,64.39
2022-08-09T12:32:00,mfh,63.41
2022-08-09T12:33:00,mfh,61.85
2022-08-09T12:34:00,mfh,61.86
2022-08-09T12:35:00,mfh,62.59
2022-08-09T12:36:00,mfh,55.14
2022-08-09T12:37:00,mfh,55.11
2022-08-09T12:38:00,mfh,55.08
2022-08-09T12:39:00,mfh,55.12
2022-08-09T12:40:00,mfh,54.68
2022-08-09T12:41:00,mfh,54.51
2022-08-09T12:42:00,mfh,54.90
2022-08-09T12:43:00,mfh,55.43
2022-08-09T12:44:00,mfh,55.68
2022-08-09T12:45:00,mfh,55.95
2022-08-09T12:46:00,mfh,55.12
2022-08-09T12:47:00,mfh,55.30
2022-08-09T12:48:00,mfh,55.18
2022-08-09T12:49:00,mfh,54.63
2022-08-09T12:50:00,mfh,53.99
2022-08-09T12:51:00,mfh,54.06
2022-08-09T12:52:00,mfh,54.83
2022-08-09T12:53:00,mfh,54.83
2022-08-09T12:54:00,mfh,55.03
2022-08-09T12:55:00,mfh,55.23
2022-08-09T12:56:00,mfh,55.68
2022-08-09T12:57:00,mfh,54.63
2022-08-09T12:58:00,mfh,54.57
2022-08-09T12:59:00,mfh,54.41
2022-08-09T13:00:00,mfh,54.36
2022-08-09T13:01:00,mfh,55.02
2022-08-09T13:02:00,mfh,55.10
2022-08-09T13:03:00,mfh,54.99
2022-08-09T13:04:00,mfh,55.13
2022-08-09T13:05:00,mfh,55.62
2022-08-09T13:06:00,mfh,54.34
2022-08-09T13:07:00,mfh,54.42
2022-08-09T13:08:00,mfh,54.26
2022-08-09T13:09:00,mfh,54.93
2022-08-09T13:10:00,mfh,54.62
2022-08-09T13:11:00,mfh,54.85
2022-08-09T13:12:00,mfh,55.06
2022-08-09T13:13:00,mfh,54.54
2022-08-09T13:14:00,mfh,53.89
2022-08-09T13:15:00,mfh,53.52
2022-08-09T13:16:00,mfh,53.73
2022-08-09T13:17:00,mfh,54.19
2022-08-09T13:18:00,mfh,54.14